, AK

(GMT )
Aniak

Weather History for PANI - September, 2012

Change the Weather History Date:

Thursday, September 13, 2012

  Actual Average Record
Temperature  
Mean Temperature 40 °F -  
Max Temperature 50 °F 50 °F 69 °F (2010)
Min Temperature 30 °F 36 °F 26 °F (1996)
Degree Days  
Heating Degree Days 25    
Moisture  
Dew Point 33 °F    
Average Humidity 75    
Maximum Humidity 93    
Minimum Humidity 38    
Precipitation  
Precipitation 0.00 in - - ()
Sea Level Pressure  
Sea Level Pressure 29.85 in    
Wind  
Wind Speed 1 mph (West)    
Max Wind Speed 7 mph    
Max Gust Speed -    
Visibility 10 miles    
Events      
Averages and records for this station are not official NWS values.
T = Trace of Precipitation, MM = Missing Value Source: NWS Daily Summary

Daily Weather History Graph

Daily Weather History Graph

Search for Another Location

Airport or City:

Trip Planner

Search our weather history database for the weather conditions in past years. The results will help you decide how hot, cold, wet, or windy it might be!

Date:

Astronomy

Sep. 13, 2012 Rise Set
Actual Time 8:01 AM AKDT 9:04 PM AKDT
Civil Twilight 7:16 AM AKDT 9:49 PM AKDT
Nautical Twilight 6:20 AM AKDT 10:44 PM AKDT
Astronomical Twilight 5:14 AM AKDT 11:49 PM AKDT
Moon 5:03 AM AKDT (9/13) 7:51 PM AKDT (9/13)
Length of Visible Light 14h 33m
Length of Day
13h 03m
Waning Crescent, 6% of the Moon is Illuminated
Sep 13
Waning Crescent
Sep 15
New
Sep 22
First Quarter
Sep 29
Full
Oct 7
Last Quarter

Hourly Weather History & Observations

Time (AKDT) Temp. Windchill Dew Point Humidity Pressure Visibility Wind Dir Wind Speed Gust Speed Precip Events Conditions
12:16 AM 42.8 °F - 37.4 °F 81% 29.85 in 10.0 mi Calm Calm - N/A   Overcast
12:36 AM 41.0 °F - 37.4 °F 87% 29.85 in 10.0 mi Calm Calm - N/A   Scattered Clouds
12:56 AM 39.2 °F - 37.4 °F 93% 29.86 in 10.0 mi Calm Calm - N/A   Clear
1:16 AM 39.2 °F - 35.6 °F 87% 29.86 in 10.0 mi Calm Calm - N/A   Scattered Clouds
1:36 AM 37.4 °F - 33.8 °F 87% 29.86 in 10.0 mi Calm Calm - N/A   Mostly Cloudy
1:56 AM 37.4 °F - 33.8 °F 87% 29.86 in 10.0 mi Calm Calm - N/A   Partly Cloudy
2:16 AM 35.6 °F - 33.8 °F 93% 29.86 in 10.0 mi Calm Calm - N/A   Mostly Cloudy
2:36 AM 35.6 °F - 33.8 °F 93% 29.87 in 10.0 mi Calm Calm - N/A   Overcast
2:56 AM 35.6 °F - 32.0 °F 87% 29.87 in 10.0 mi Calm Calm - N/A   Overcast
3:16 AM 33.8 °F - 30.2 °F 87% 29.87 in 10.0 mi Calm Calm - N/A   Mostly Cloudy
3:36 AM 33.8 °F - 30.2 °F 87% 29.88 in 10.0 mi Calm Calm - N/A   Mostly Cloudy
3:56 AM 33.8 °F - 30.2 °F 87% 29.88 in 10.0 mi Calm Calm - N/A   Overcast
4:16 AM 33.8 °F - 30.2 °F 87% 29.88 in 10.0 mi Calm Calm - N/A   Mostly Cloudy
4:36 AM 33.8 °F - 30.2 °F 87% 29.88 in 10.0 mi Calm Calm - N/A   Mostly Cloudy
4:56 AM 33.8 °F - 30.2 °F 87% 29.88 in 10.0 mi Calm Calm - N/A   Scattered Clouds
5:16 AM 30.2 °F - 28.4 °F 93% 29.89 in 10.0 mi Calm Calm - N/A   Partly Cloudy
5:36 AM 30.2 °F - 28.4 °F 93% 29.89 in 10.0 mi Calm Calm - N/A   Clear
5:56 AM 30.2 °F - 28.4 °F 93% 29.89 in 10.0 mi Calm Calm - N/A   Partly Cloudy
6:16 AM 30.2 °F - 26.6 °F 86% 29.89 in 10.0 mi Calm Calm - N/A   Mostly Cloudy
6:36 AM 30.2 °F - 28.4 °F 93% 29.89 in 10.0 mi Calm Calm - N/A   Overcast
6:56 AM 30.2 °F - 28.4 °F 93% 29.90 in 10.0 mi Calm Calm - N/A   Overcast
7:16 AM 33.8 °F - 30.2 °F 87% 29.90 in 10.0 mi Calm Calm - N/A   Overcast
7:36 AM 33.8 °F - 30.2 °F 87% 29.90 in 10.0 mi Calm Calm - N/A   Overcast
7:56 AM 32.0 °F - 30.2 °F 93% 29.90 in 10.0 mi Calm Calm - N/A   Overcast
8:16 AM 33.8 °F - 30.2 °F 87% 29.90 in 10.0 mi Calm Calm - N/A   Mostly Cloudy
8:36 AM 33.8 °F - 30.2 °F 87% 29.90 in 10.0 mi Calm Calm - N/A   Mostly Cloudy
8:56 AM 33.8 °F - 32.0 °F 93% 29.90 in 10.0 mi Calm Calm - N/A   Scattered Clouds
9:16 AM 33.8 °F - 32.0 °F 93% 29.90 in 10.0 mi Calm Calm - N/A   Clear
9:36 AM 35.6 °F - 33.8 °F 93% 29.90 in 10.0 mi Calm Calm - N/A   Clear
9:56 AM 37.4 °F 33.8 °F 33.8 °F 87% 29.90 in 10.0 mi West 4.6 mph - N/A   Clear
10:16 AM 37.4 °F 33.8 °F 33.8 °F 87% 29.90 in 10.0 mi West 4.6 mph - N/A   Scattered Clouds
10:36 AM 37.4 °F - 35.6 °F 93% 29.90 in 10.0 mi Calm Calm - N/A   Mostly Cloudy
10:56 AM 39.2 °F - 35.6 °F 87% 29.90 in 10.0 mi Calm Calm - N/A   Mostly Cloudy
11:16 AM 39.2 °F - 35.6 °F 87% 29.90 in 10.0 mi Calm Calm - N/A   Partly Cloudy
11:36 AM 39.2 °F - 35.6 °F 87% 29.90 in 10.0 mi Calm Calm - N/A   Scattered Clouds
11:56 AM 42.8 °F 41.1 °F 35.6 °F 76% 29.90 in 10.0 mi SSW 3.5 mph - N/A   Mostly Cloudy
12:16 PM 42.8 °F - 35.6 °F 76% 29.89 in 10.0 mi Calm Calm - N/A   Scattered Clouds
12:36 PM 44.6 °F - 37.4 °F 76% 29.89 in 10.0 mi Calm Calm - N/A   Partly Cloudy
12:56 PM 46.4 °F 45.2 °F 35.6 °F 66% 29.89 in 10.0 mi SW 3.5 mph - N/A   Clear
1:16 PM 46.4 °F 44.3 °F 35.6 °F 66% 29.88 in 10.0 mi SW 4.6 mph - N/A   Clear
1:36 PM 48.2 °F - 33.8 °F 58% 29.88 in 10.0 mi SW 4.6 mph - N/A   Partly Cloudy
1:56 PM 48.2 °F - 33.8 °F 58% 29.87 in 10.0 mi Calm Calm - N/A   Mostly Cloudy
2:16 PM 50.0 °F - 33.8 °F 54% 29.87 in 10.0 mi SW 5.8 mph - N/A   Mostly Cloudy
2:36 PM 50.0 °F - 33.8 °F 54% 29.86 in 10.0 mi SSW 3.5 mph - N/A   Mostly Cloudy
2:56 PM 48.2 °F - 33.8 °F 58% 29.86 in 10.0 mi SSE 4.6 mph - N/A   Mostly Cloudy
3:16 PM 50.0 °F - 33.8 °F 54% 29.85 in 10.0 mi East 3.5 mph - N/A   Mostly Cloudy
3:36 PM 50.0 °F - 33.8 °F 54% 29.85 in 10.0 mi Calm Calm - N/A   Overcast
3:56 PM 50.0 °F - 32.0 °F 50% 29.84 in 10.0 mi SSE 3.5 mph - N/A   Mostly Cloudy
4:16 PM 50.0 °F - 32.0 °F 50% 29.84 in 10.0 mi Calm Calm - N/A   Mostly Cloudy
4:36 PM 50.0 °F - 32.0 °F 50% 29.83 in 10.0 mi Calm Calm - N/A   Partly Cloudy
4:56 PM 50.0 °F - 32.0 °F 50% 29.83 in 10.0 mi WSW 4.6 mph - N/A   Clear
5:16 PM 50.0 °F - 33.8 °F 54% 29.82 in 10.0 mi West 3.5 mph - N/A   Clear
5:36 PM 50.0 °F - 32.0 °F 50% 29.82 in 10.0 mi West 3.5 mph - N/A   Clear
5:56 PM 48.2 °F - 33.8 °F 58% 29.82 in 10.0 mi WNW 5.8 mph - N/A   Clear
6:16 PM 48.2 °F - 33.8 °F 58% 29.81 in 10.0 mi NW 6.9 mph - N/A   Clear
6:36 PM 48.2 °F - 33.8 °F 58% 29.81 in 10.0 mi WNW 4.6 mph - N/A   Clear
6:56 PM 50.0 °F - 33.8 °F 54% 29.80 in 10.0 mi Calm Calm - N/A   Clear
7:16 PM 50.0 °F - 33.8 °F 54% 29.80 in 10.0 mi NW 4.6 mph - N/A   Clear
7:36 PM 48.2 °F - 33.8 °F 58% 29.79 in 10.0 mi WNW 4.6 mph - N/A   Clear
7:56 PM 48.2 °F - 33.8 °F 58% 29.79 in 10.0 mi West 5.8 mph - N/A   Clear
8:16 PM 46.4 °F 45.2 °F 33.8 °F 62% 29.78 in 10.0 mi West 3.5 mph - N/A   Clear
8:36 PM 46.4 °F - 33.8 °F 62% 29.78 in 10.0 mi Calm Calm - N/A   Clear
8:56 PM 44.6 °F - 35.6 °F 71% 29.78 in 10.0 mi Calm Calm - N/A   Clear
9:16 PM 44.6 °F 43.1 °F 35.6 °F 71% 29.78 in 10.0 mi NNW 3.5 mph - N/A   Clear
9:36 PM 44.6 °F - 35.6 °F 71% 29.78 in 10.0 mi Calm Calm - N/A   Partly Cloudy
9:56 PM 42.8 °F - 35.6 °F 76% 29.78 in 10.0 mi Calm Calm - N/A   Mostly Cloudy
10:16 PM 44.6 °F - 35.6 °F 71% 29.78 in 10.0 mi Calm Calm - N/A   Overcast
10:36 PM 42.8 °F - 35.6 °F 76% 29.77 in 10.0 mi Calm Calm - N/A   Overcast
10:56 PM 42.8 °F - 35.6 °F 76% 29.76 in 10.0 mi Calm Calm - N/A   Overcast
11:16 PM 42.8 °F - 35.6 °F 76% 29.76 in 10.0 mi Calm Calm - N/A   Mostly Cloudy
11:36 PM 42.8 °F - 35.6 °F 76% 29.76 in 8.0 mi Calm Calm - N/A   Overcast
11:56 PM 44.6 °F 42.2 °F 33.8 °F 66% 29.76 in 10.0 mi WNW 4.6 mph - N/A   Overcast